Flag for U.S.A. Weather past 2 weeks in Houston, Texas, U.S.A.

Now
57 °F

Passing clouds.


Feels Like: 56 °F
Forecast: 53 / 71 °F
Wind: 7 mph from Southeast

Location: Houston Hobby Airport

Current Time: Dec 21, 2014 at 6:38:50 PM

Latest Report: Dec 21, 2014 at 5:53 PM


Visibility: 10 mi

Pressure: 29.95 "Hg

Humidity: 81%

Dew point: 51 °F

Location of HoustonLocation

Historic Weather in Houston — Graph

°F

Houston temperature yesterday

Maximum temperature yesterday: 54 °F (at 10:53 AM)
Minimum temperature yesterday: 51 °F (at 5:53 AM)
Average temperature yesterday: 53 °F

Past Weeks' High & Low Weather Summary

 TemperatureHumidityPressure
High77 °F (Dec 15, 11:53 AM)100% (Dec 14, 4:53 AM)30.37 "Hg (Dec 14, 4:53 AM)
Low46 °F (Dec 10, 2:53 AM)29% (Dec 16, 12:53 PM)29.93 "Hg (Dec 15, 4:53 AM)
Average60 °F79%30.18 "Hg
* Reported Dec 6 4:53 PM — Dec 21 4:53 PM, Houston, Weather by CustomWeather, © 2014

Note: Actual official high and low records may vary slightly from our data, if they occured in-between our weather recording intervals... More about our weather records

Advertising

Houston weather history for previous 24 hours

 ConditionsComfort  
Time TempWeatherWind HumidityBarometerVisibility
4:53 PM
Dec 21
59 °FPartly sunny.7 mph75%29.96 "Hg10 mi
3:53 PM61 °FBroken clouds.7 mph70%29.97 "Hg10 mi
2:53 PM61 °FBroken clouds.No wind67%29.98 "Hg10 mi
1:53 PM61 °FPartly sunny.3 mph67%30.00 "Hg10 mi
12:53 PM60 °FPartly sunny.6 mph67%30.03 "Hg10 mi
11:53 AM59 °FPartly sunny.3 mph69%30.09 "Hg10 mi
10:53 AM54 °FMore clouds than sun.3 mph80%30.13 "Hg10 mi
9:53 AM52 °FOvercast.5 mph83%30.14 "Hg10 mi
8:53 AM51 °FOvercast.8 mph86%30.12 "Hg10 mi
7:53 AM50 °FOvercast.7 mph89%30.14 "Hg10 mi
6:53 AM50 °FOvercast.5 mph86%30.14 "Hg10 mi
5:53 AM50 °FOvercast.6 mph86%30.13 "Hg10 mi
4:53 AM50 °FOvercast.6 mph86%30.12 "Hg10 mi
3:53 AM50 °FOvercast.8 mph86%30.14 "Hg10 mi
2:53 AM51 °FOvercast.7 mph83%30.16 "Hg10 mi
1:53 AM51 °FOvercast.5 mph83%30.17 "Hg10 mi
12:53 AM51 °FOvercast.8 mph86%30.17 "Hg10 mi
11:53 PM
Dec 20
52 °FMostly cloudy.10 mph86%30.19 "Hg10 mi
10:53 PM52 °FOvercast.7 mph86%30.19 "Hg10 mi
9:53 PM52 °FOvercast.5 mph86%30.19 "Hg10 mi
8:53 PM51 °FPassing clouds.5 mph86%30.19 "Hg10 mi
7:53 PM52 °FPassing clouds.6 mph86%30.19 "Hg10 mi
7:03 PM54 °FOvercast.6 mph82%30.16 "Hg10 mi
6:53 PM53 °FMostly cloudy.5 mph86%30.17 "Hg10 mi
Weather by CustomWeather, © 2014

See weather overviewHow to use our weather pages